| time (UTC) | temp F | wind direction | speed MPH | gust MPH | rain 1hr in | rain 24hr in | rain mn in | humidity % | barometer mb |
| 20260507171907 | 51 | 25 | 5.0 | 8.0 | 0.07 | 1.21 | 1.21 | 99 | 1013.3 |
| 20260507171403 | 52 | 23 | 5.0 | 9.0 | 0.07 | 1.20 | 1.20 | 99 | 1013.8 |
| 20260507170900 | 52 | 337 | 0.0 | 1.0 | 0.12 | 1.20 | 1.20 | 99 | 1013.7 |
| 20260507170357 | 52 | 317 | 0.0 | 1.0 | 0.05 | 1.19 | 1.19 | 99 | 1013.2 |
| 20260507165853 | 52 | 356 | 1.0 | 1.0 | 0.00 | 1.18 | 1.18 | 99 | 1013.5 |
| 20260507165349 | 52 | 25 | 1.0 | 2.0 | 0.07 | 1.18 | 1.18 | 99 | 1013.2 |
| 20260507164845 | 52 | 342 | 1.0 | 1.0 | 0.07 | 1.18 | 1.18 | 99 | 1013.5 |
| 20260507164342 | 52 | 6 | 2.0 | 2.0 | 0.05 | 1.17 | 1.17 | 99 | 1013.3 |
| 20260507163840 | 52 | 350 | 1.0 | 1.0 | 0.17 | 1.17 | 1.17 | 99 | 1013.3 |
| 20260507163337 | 51 | 313 | 0.0 | 0.0 | 0.19 | 1.16 | 1.16 | 99 | 1013.3 |
| 20260507162834 | 51 | 9 | 3.0 | 5.0 | 0.19 | 1.14 | 1.14 | 99 | 1013.3 |
| 20260507162329 | 52 | 20 | 3.0 | 5.0 | 0.24 | 1.12 | 1.12 | 99 | 1013.0 |
| 20260507161826 | 52 | 90 | 1.0 | 3.0 | 0.31 | 1.10 | 1.10 | 99 | 1013.0 |
| 20260507161323 | 52 | 7 | 2.0 | 2.0 | 0.31 | 1.07 | 1.07 | 99 | 1013.4 |
| 20260507160820 | 52 | 338 | 1.0 | 1.0 | 0.31 | 1.05 | 1.05 | 99 | 1013.6 |
| 20260507160315 | 52 | 1 | 1.0 | 2.0 | 0.28 | 1.02 | 1.02 | 99 | 1013.7 |
| 20260507155811 | 52 | 347 | 5.0 | 6.0 | 0.42 | 0.99 | 0.99 | 99 | 1013.3 |
| 20260507155308 | 52 | 47 | 0.0 | 1.0 | 0.47 | 0.96 | 0.96 | 99 | 1012.4 |
| 20260507154804 | 52 | 11 | 1.0 | 2.0 | 0.40 | 0.91 | 0.91 | 99 | 1012.8 |
| 20260507154302 | 52 | 328 | 1.0 | 2.0 | 0.35 | 0.87 | 0.87 | 99 | 1013.2 |
| 20260507153758 | 53 | 1 | 2.0 | 2.0 | 0.42 | 0.84 | 0.84 | 99 | 1013.4 |
| 20260507153254 | 53 | 291 | 1.0 | 2.0 | 0.35 | 0.80 | 0.80 | 99 | 1013.8 |
| 20260507152751 | 53 | 6 | 1.0 | 1.0 | 0.35 | 0.77 | 0.77 | 99 | 1013.7 |
| 20260507152248 | 53 | 11 | 3.0 | 3.0 | 0.42 | 0.74 | 0.74 | 99 | 1013.6 |
| 20260507151743 | 53 | 15 | 0.0 | 1.0 | 0.54 | 0.70 | 0.70 | 99 | 1013.6 |
| 20260507151240 | 54 | 7 | 2.0 | 3.0 | 0.66 | 0.65 | 0.65 | 99 | 1013.9 |
| 20260507150737 | 54 | 322 | 2.0 | 3.0 | 0.54 | 0.59 | 0.59 | 99 | 1013.9 |
| 20260507150234 | 54 | 4 | 2.0 | 3.0 | 0.24 | 0.53 | 0.53 | 99 | 1013.7 |
| 20260507145730 | 54 | 335 | 0.0 | 0.0 | 0.12 | 0.50 | 0.50 | 99 | 1013.8 |
| 20260507145226 | 55 | 352 | 3.0 | 3.0 | 0.07 | 0.49 | 0.49 | 99 | 1013.5 |
| 20260507144724 | 55 | 7 | 3.0 | 5.0 | 0.00 | 0.48 | 0.48 | 99 | 1013.7 |
| 20260507144221 | 55 | 27 | 5.0 | 7.0 | 0.05 | 0.48 | 0.48 | 99 | 1013.7 |
| 20260507143718 | 55 | 21 | 2.0 | 3.0 | 0.12 | 0.48 | 0.48 | 99 | 1013.8 |
| 20260507143215 | 55 | 19 | 2.0 | 3.0 | 0.07 | 0.47 | 0.47 | 99 | 1013.4 |
| 20260507142711 | 56 | 347 | 1.0 | 2.0 | 0.05 | 0.46 | 0.46 | 99 | 1013.4 |
| 20260507142208 | 55 | 88 | 1.0 | 2.0 | 0.12 | 0.46 | 0.46 | 99 | 1013.3 |
| 20260507141703 | 56 | 24 | 1.0 | 2.0 | 0.00 | 0.44 | 0.44 | 99 | 1013.5 |
| 20260507141201 | 56 | 298 | 1.0 | 1.0 | 0.07 | 0.44 | 0.44 | 99 | 1013.2 |
| 20260507140657 | 56 | 0 | 3.0 | 5.0 | 0.07 | 0.44 | 0.44 | 99 | 1013.0 |
| 20260507140155 | 57 | 21 | 6.0 | 10.0 | 0.00 | 0.43 | 0.43 | 99 | 1013.0 |
| 20260507135651 | 57 | 337 | 1.0 | 2.0 | 0.00 | 0.43 | 0.43 | 99 | 1013.0 |
| 20260507135149 | 57 | 269 | 2.0 | 3.0 | 0.00 | 0.43 | 0.43 | 99 | 1013.1 |
| 20260507134645 | 57 | 29 | 3.0 | 5.0 | 0.05 | 0.43 | 0.43 | 99 | 1013.1 |
| 20260507134141 | 57 | 340 | 2.0 | 3.0 | 0.00 | 0.42 | 0.42 | 99 | 1013.2 |
| 20260507133637 | 58 | 326 | 0.0 | 1.0 | 0.07 | 0.42 | 0.42 | 99 | 1013.1 |
| 20260507133135 | 58 | 24 | 3.0 | 5.0 | 0.07 | 0.42 | 0.42 | 99 | 1013.0 |
| 20260507132632 | 58 | 18 | 1.0 | 2.0 | 0.05 | 0.41 | 0.41 | 99 | 1012.8 |
| 20260507132128 | 58 | 20 | 5.0 | 6.0 | 0.17 | 0.41 | 0.41 | 99 | 1012.9 |
| 20260507131625 | 59 | 347 | 2.0 | 2.0 | 0.28 | 0.39 | 0.39 | 99 | 1012.8 |
| 20260507131123 | 59 | 341 | 1.0 | 1.0 | 0.24 | 0.37 | 0.37 | 99 | 1013.3 |
| 20260507130619 | 59 | 346 | 0.0 | 0.0 | 0.07 | 0.34 | 0.34 | 99 | 1013.2 |
| 20260507130117 | 60 | 324 | 0.0 | 0.0 | 0.00 | 0.33 | 0.33 | 99 | 1013.1 |
| 20260507125615 | 59 | 331 | 0.0 | 1.0 | 0.00 | 0.33 | 0.33 | 99 | 1013.0 |
| 20260507125112 | 60 | 321 | 0.0 | 0.0 | 0.00 | 0.33 | 0.33 | 99 | 1012.9 |
| 20260507124609 | 60 | 335 | 1.0 | 1.0 | 0.00 | 0.33 | 0.33 | 99 | 1013.1 |
| 20260507124107 | 60 | 58 | 0.0 | 0.0 | 0.00 | 0.33 | 0.33 | 99 | 1013.0 |
| 20260507123605 | 60 | 305 | 0.0 | 0.0 | 0.00 | 0.33 | 0.33 | 99 | 1012.9 |
| 20260507123101 | 60 | 282 | 1.0 | 2.0 | 0.07 | 0.33 | 0.33 | 99 | 1013.2 |
| 20260507122556 | 60 | 300 | 0.0 | 1.0 | 0.07 | 0.33 | 0.33 | 99 | 1013.1 |
| 20260507122052 | 60 | 53 | 1.0 | 2.0 | 0.05 | 0.32 | 0.32 | 99 | 1013.1 |
| 20260507121548 | 60 | 318 | 0.0 | 0.0 | 0.12 | 0.32 | 0.32 | 99 | 1012.9 |
| 20260507121045 | 60 | 311 | 0.0 | 0.0 | 0.07 | 0.31 | 0.31 | 99 | 1012.9 |
| 20260507120540 | 60 | 350 | 0.0 | 1.0 | 0.00 | 0.30 | 0.30 | 99 | 1013.0 |
| 20260507120038 | 60 | 341 | 1.0 | 1.0 | 0.00 | 0.30 | 0.30 | 99 | 1013.2 |
| 20260507115534 | 60 | 310 | 0.0 | 0.0 | 0.00 | 0.30 | 0.30 | 99 | 1012.9 |
| 20260507115030 | 60 | 27 | 1.0 | 2.0 | 0.00 | 0.30 | 0.30 | 99 | 1012.9 |
| 20260507114526 | 60 | 292 | 0.0 | 0.0 | 0.00 | 0.30 | 0.30 | 99 | 1012.5 |
| 20260507114023 | 61 | 303 | 0.0 | 0.0 | 0.12 | 0.30 | 0.30 | 99 | 1012.6 |
| 20260507113521 | 61 | 317 | 0.0 | 0.0 | 0.35 | 0.30 | 0.30 | 99 | 1012.4 |
| 20260507113018 | 62 | 314 | 1.0 | 1.0 | 0.35 | 0.28 | 0.28 | 99 | 1012.3 |
| 20260507112515 | 66 | 2 | 1.0 | 1.0 | 0.17 | 0.24 | 0.24 | 99 | 1012.6 |
| 20260507112012 | 66 | 264 | 2.0 | 2.0 | 0.05 | 0.22 | 0.22 | 99 | 1012.3 |
| 20260507111510 | 66 | 265 | 1.0 | 1.0 | 0.07 | 0.21 | 0.21 | 99 | 1012.0 |
| 20260507111005 | 66 | 248 | 1.0 | 2.0 | 0.19 | 0.21 | 0.21 | 99 | 1012.2 |
| 20260507110502 | 66 | 251 | 3.0 | 5.0 | 0.24 | 0.20 | 0.20 | 99 | 1012.1 |
| 20260507105958 | 66 | 268 | 2.0 | 2.0 | 0.19 | 0.18 | 0.18 | 99 | 1012.5 |
| 20260507105455 | 66 | 275 | 0.0 | 0.0 | 0.19 | 0.16 | 0.16 | 98 | 1012.3 |
| 20260507104951 | 66 | 282 | 0.0 | 0.0 | 0.17 | 0.15 | 0.15 | 98 | 1012.0 |
| 20260507104449 | 66 | 280 | 0.0 | 0.0 | 0.24 | 0.13 | 0.13 | 98 | 1012.2 |
| 20260507103944 | 66 | 274 | 1.0 | 2.0 | 0.31 | 0.11 | 0.11 | 98 | 1012.0 |
| 20260507103441 | 66 | 266 | 0.0 | 1.0 | 0.35 | 0.09 | 0.09 | 97 | 1012.4 |
| 20260507102937 | 66 | 278 | 0.0 | 0.0 | 0.28 | 0.06 | 0.06 | 97 | 1012.3 |
| 20260507102435 | 67 | 284 | 0.0 | 0.0 | 0.19 | 0.03 | 0.03 | 96 | 1012.0 |
| 20260507101931 | 67 | 310 | 0.0 | 0.0 | 0.07 | 0.01 | 0.01 | 96 | 1012.1 |
| 20260507101426 | 67 | 286 | 0.0 | 0.0 | 0.00 | 0.00 | 0.00 | 96 | 1011.7 |
| 20260507100923 | 67 | 283 | 0.0 | 0.0 | 0.00 | 0.00 | 0.00 | 96 | 1011.7 |
| 20260507100420 | 67 | 260 | 0.0 | 0.0 | 0.00 | 0.00 | 0.00 | 96 | 1011.4 |
| 20260507095919 | 67 | 266 | 0.0 | 0.0 | 0.00 | 0.00 | 0.00 | 95 | 1011.5 |
| 20260507095415 | 67 | 272 | 0.0 | 0.0 | 0.00 | 0.00 | 0.00 | 95 | 1011.0 |
| 20260507094913 | 67 | 279 | 0.0 | 0.0 | 0.00 | 0.00 | 0.00 | 94 | 1011.1 |
| 20260507094408 | 67 | 278 | 0.0 | 0.0 | 0.00 | 0.00 | 0.00 | 94 | 1010.9 |
| 20260507093905 | 67 | 279 | 0.0 | 0.0 | 0.00 | 0.00 | 0.00 | 93 | 1010.9 |
| 20260507093404 | 68 | 259 | 0.0 | 0.0 | 0.00 | 0.00 | 0.00 | 93 | 1010.9 |
| 20260507092902 | 68 | 242 | 1.0 | 2.0 | 0.00 | 0.00 | 0.00 | 92 | 1011.2 |
| 20260507092357 | 68 | 244 | 2.0 | 2.0 | 0.00 | 0.00 | 0.00 | 91 | 1011.3 |
| 20260507091854 | 69 | 283 | 1.0 | 2.0 | 0.00 | 0.00 | 0.00 | 89 | 1011.4 |
| 20260507091351 | 69 | 245 | 2.0 | 2.0 | 0.00 | 0.00 | 0.00 | 87 | 1011.5 |
| 20260507090846 | 69 | 193 | 2.0 | 3.0 | 0.00 | 0.00 | 0.00 | 86 | 1011.2 |
| 20260507090343 | 69 | 233 | 3.0 | 5.0 | 0.00 | 0.00 | 0.00 | 86 | 1011.3 |
| 20260507085840 | 69 | 229 | 2.0 | 2.0 | 0.00 | 0.00 | 0.00 | 86 | 1011.6 |
| 20260507085337 | 69 | 293 | 1.0 | 2.0 | 0.00 | 0.00 | 0.00 | 86 | 1011.5 |
| 20260507084834 | 69 | 267 | 2.0 | 2.0 | 0.00 | 0.00 | 0.00 | 86 | 1011.4 |
| 20260507084330 | 69 | 186 | 2.0 | 2.0 | 0.00 | 0.00 | 0.00 | 85 | 1011.6 |
| 20260507083828 | 70 | 235 | 3.0 | 3.0 | 0.00 | 0.00 | 0.00 | 85 | 1012.0 |
| 20260507083324 | 70 | 249 | 4.0 | 5.0 | 0.00 | 0.00 | 0.00 | 85 | 1011.4 |
| 20260507082820 | 70 | 252 | 3.0 | 5.0 | 0.00 | 0.00 | 0.00 | 85 | 1011.8 |
| 20260507082316 | 69 | 290 | 2.0 | 2.0 | 0.00 | 0.00 | 0.00 | 85 | 1011.5 |
| 20260507081814 | 69 | 246 | 0.0 | 1.0 | 0.00 | 0.00 | 0.00 | 85 | 1011.8 |
| 20260507081309 | 69 | 259 | 0.0 | 0.0 | 0.00 | 0.00 | 0.00 | 85 | 1012.0 |
| 20260507080806 | 69 | 233 | 1.0 | 2.0 | 0.00 | 0.00 | 0.00 | 85 | 1011.9 |
| 20260507080303 | 69 | 249 | 2.0 | 3.0 | 0.00 | 0.00 | 0.00 | 86 | 1012.2 |
| 20260507075758 | 69 | 288 | 1.0 | 2.0 | 0.00 | 0.00 | 0.00 | 86 | 1012.1 |
| 20260507075254 | 69 | 255 | 2.0 | 3.0 | 0.00 | 0.00 | 0.00 | 86 | 1012.4 |
| 20260507074750 | 69 | 236 | 1.0 | 2.0 | 0.00 | 0.00 | 0.00 | 86 | 1012.2 |
| 20260507074249 | 69 | 248 | 3.0 | 3.0 | 0.00 | 0.00 | 0.00 | 87 | 1012.2 |
| 20260507073745 | 69 | 245 | 3.0 | 5.0 | 0.00 | 0.00 | 0.00 | 87 | 1012.2 |
| 20260507073241 | 69 | 271 | 1.0 | 1.0 | 0.00 | 0.00 | 0.00 | 87 | 1012.2 |
| 20260507072740 | 69 | 232 | 1.0 | 2.0 | 0.00 | 0.00 | 0.00 | 87 | 1012.2 |
| 20260507072237 | 69 | 285 | 0.0 | 0.0 | 0.00 | 0.00 | 0.00 | 87 | 1011.9 |
| 20260507071734 | 69 | 273 | 2.0 | 2.0 | 0.00 | 0.00 | 0.00 | 87 | 1012.0 |
| 20260507071230 | 69 | 236 | 2.0 | 2.0 | 0.00 | 0.00 | 0.00 | 87 | 1011.7 |
| 20260507070727 | 69 | 260 | 1.0 | 2.0 | 0.00 | 0.00 | 0.00 | 87 | 1011.7 |
| 20260507070224 | 69 | 254 | 3.0 | 3.0 | 0.00 | 0.00 | 0.00 | 87 | 1011.9 |
| 20260507065721 | 69 | 286 | 1.0 | 2.0 | 0.00 | 0.00 | 0.00 | 87 | 1011.7 |
| 20260507065218 | 69 | 280 | 1.0 | 2.0 | 0.00 | 0.00 | 0.00 | 87 | 1011.4 |
| 20260507064715 | 69 | 248 | 2.0 | 3.0 | 0.00 | 0.00 | 0.00 | 87 | 1011.6 |
| 20260507064214 | 69 | 260 | 1.0 | 1.0 | 0.00 | 0.00 | 0.00 | 86 | 1011.5 |
| 20260507063711 | 69 | 266 | 0.0 | 1.0 | 0.00 | 0.00 | 0.00 | 84 | 1011.1 |
| 20260507063208 | 70 | 203 | 1.0 | 1.0 | 0.00 | 0.00 | 0.00 | 84 | 1011.6 |
| 20260507062705 | 70 | 252 | 1.0 | 1.0 | 0.00 | 0.00 | 0.00 | 83 | 1011.8 |
| 20260507062202 | 70 | 213 | 2.0 | 3.0 | 0.00 | 0.00 | 0.00 | 83 | 1012.4 |
| 20260507061700 | 69 | 192 | 3.0 | 3.0 | 0.00 | 0.00 | 0.00 | 83 | 1012.5 |
| 20260507061158 | 69 | 228 | 1.0 | 1.0 | 0.00 | 0.00 | 0.00 | 83 | 1012.6 |
| 20260507060655 | 70 | 250 | 2.0 | 2.0 | 0.00 | 0.00 | 0.00 | 83 | 1012.8 |
| 20260507060152 | 70 | 218 | 3.0 | 3.0 | 0.00 | 0.00 | 0.00 | 83 | 1012.7 |
| 20260507055647 | 70 | 209 | 1.0 | 1.0 | 0.00 | 0.00 | 0.00 | 82 | 1012.8 |
| 20260507055144 | 70 | 266 | 4.0 | 5.0 | 0.00 | 0.00 | 0.00 | 80 | 1012.7 |
| 20260507054640 | 71 | 225 | 3.0 | 3.0 | 0.00 | 0.00 | 0.00 | 79 | 1013.0 |
| 20260507054137 | 71 | 261 | 1.0 | 2.0 | 0.00 | 0.00 | 0.00 | 78 | 1012.7 |
| 20260507053635 | 71 | 266 | 3.0 | 3.0 | 0.00 | 0.00 | 0.00 | 77 | 1013.1 |
| 20260507053132 | 71 | 200 | 3.0 | 3.0 | 0.00 | 0.00 | 0.00 | 77 | 1013.1 |
| 20260507052631 | 71 | 245 | 1.0 | 1.0 | 0.00 | 0.00 | 0.00 | 76 | 1013.0 |
| 20260507052126 | 71 | 213 | 1.0 | 2.0 | 0.00 | 0.00 | 0.00 | 75 | 1012.9 |
| 20260507051624 | 71 | 281 | 1.0 | 2.0 | 0.00 | 0.00 | 0.00 | 75 | 1012.9 |
| 20260507051120 | 71 | 251 | 0.0 | 1.0 | 0.00 | 0.00 | 0.00 | 74 | 1013.0 |
| 20260507050617 | 72 | 255 | 1.0 | 2.0 | 0.00 | 0.00 | 0.00 | 73 | 1012.8 |
| 20260507050109 | 72 | 240 | 1.0 | 2.0 | 0.00 | 0.00 | 0.00 | 72 | 1012.6 |
| 20260507045605 | 72 | 233 | 0.0 | 0.0 | 0.00 | 0.00 | 0.00 | 72 | 1012.4 |
| 20260507045102 | 72 | 223 | 2.0 | 2.0 | 0.00 | 0.00 | 0.00 | 72 | 1012.7 |
| 20260507044559 | 72 | 277 | 1.0 | 2.0 | 0.00 | 0.00 | 0.00 | 71 | 1012.8 |
| 20260507044056 | 72 | 197 | 3.0 | 3.0 | 0.00 | 0.00 | 0.00 | 71 | 1013.0 |
| 20260507043552 | 72 | 236 | 4.0 | 6.0 | 0.00 | 0.00 | 0.00 | 71 | 1013.1 |
| 20260507043049 | 72 | 238 | 0.0 | 0.0 | 0.00 | 0.00 | 0.00 | 71 | 1013.1 |
| 20260507042545 | 72 | 218 | 2.0 | 3.0 | 0.00 | 0.00 | 0.00 | 71 | 1012.9 |
| 20260507042041 | 72 | 250 | 3.0 | 5.0 | 0.00 | 0.00 | 0.00 | 71 | 1013.0 |
| 20260507041538 | 73 | 194 | 3.0 | 3.0 | 0.00 | 0.00 | 0.00 | 71 | 1012.8 |
| 20260507041035 | 73 | 231 | 3.0 | 3.0 | 0.00 | 0.00 | 0.00 | 71 | 1012.8 |
| 20260507040531 | 73 | 243 | 2.0 | 2.0 | 0.00 | 0.00 | 0.00 | 72 | 1012.6 |
| 20260507040027 | 73 | 213 | 4.0 | 5.0 | 0.00 | 0.00 | 0.00 | 72 | 1012.6 |
| 20260507035523 | 73 | 233 | 2.0 | 2.0 | 0.00 | 0.00 | 0.00 | 73 | 1012.5 |
| 20260507035020 | 73 | 212 | 3.0 | 5.0 | 0.00 | 0.00 | 0.00 | 73 | 1012.3 |
| 20260507034517 | 73 | 251 | 1.0 | 2.0 | 0.00 | 0.00 | 0.00 | 73 | 1012.4 |
| 20260507034015 | 73 | 188 | 4.0 | 5.0 | 0.00 | 0.00 | 0.00 | 73 | 1012.3 |
| 20260507033513 | 73 | 203 | 3.0 | 3.0 | 0.00 | 0.00 | 0.00 | 73 | 1012.4 |
| 20260507033010 | 74 | 229 | 3.0 | 5.0 | 0.00 | 0.00 | 0.00 | 73 | 1012.2 |
| 20260507032506 | 74 | 238 | 0.0 | 1.0 | 0.00 | 0.00 | 0.00 | 72 | 1012.1 |
| 20260507032003 | 74 | 207 | 2.0 | 2.0 | 0.00 | 0.00 | 0.00 | 72 | 1012.4 |
| 20260507031459 | 74 | 227 | 3.0 | 3.0 | 0.00 | 0.00 | 0.00 | 71 | 1012.5 |
| 20260507030956 | 74 | 196 | 3.0 | 5.0 | 0.00 | 0.00 | 0.00 | 72 | 1012.6 |
| 20260507030453 | 74 | 206 | 3.0 | 3.0 | 0.00 | 0.00 | 0.00 | 72 | 1012.3 |
| 20260507025950 | 74 | 276 | 1.0 | 1.0 | 0.00 | 0.00 | 0.00 | 73 | 1012.7 |
| 20260507025447 | 74 | 266 | 2.0 | 2.0 | 0.00 | 0.00 | 0.00 | 73 | 1012.3 |
| 20260507024945 | 74 | 261 | 1.0 | 2.0 | 0.00 | 0.00 | 0.00 | 74 | 1012.5 |
| 20260507024442 | 74 | 251 | 1.0 | 3.0 | 0.00 | 0.00 | 0.00 | 74 | 1012.8 |
| 20260507023937 | 74 | 289 | 1.0 | 1.0 | 0.00 | 0.00 | 0.00 | 74 | 1013.1 |
| 20260507023435 | 74 | 189 | 1.0 | 2.0 | 0.00 | 0.00 | 0.00 | 75 | 1013.0 |
| 20260507022932 | 74 | 219 | 1.0 | 2.0 | 0.00 | 0.00 | 0.00 | 75 | 1013.1 |
| 20260507022429 | 75 | 229 | 0.0 | 0.0 | 0.00 | 0.00 | 0.00 | 74 | 1013.0 |
| 20260507021924 | 75 | 292 | 3.0 | 3.0 | 0.00 | 0.00 | 0.00 | 74 | 1013.0 |
| 20260507021420 | 75 | 264 | 2.0 | 2.0 | 0.00 | 0.00 | 0.00 | 74 | 1012.9 |
| 20260507020918 | 75 | 293 | 2.0 | 2.0 | 0.00 | 0.00 | 0.00 | 75 | 1013.1 |
| 20260507020414 | 75 | 209 | 2.0 | 2.0 | 0.00 | 0.00 | 0.00 | 75 | 1013.3 |
| 20260507015911 | 75 | 272 | 1.0 | 1.0 | 0.00 | 0.00 | 0.00 | 75 | 1013.0 |
| 20260507015409 | 75 | 274 | 1.0 | 1.0 | 0.00 | 0.00 | 0.00 | 74 | 1013.4 |
| 20260507014906 | 75 | 231 | 0.0 | 1.0 | 0.00 | 0.00 | 0.00 | 74 | 1013.1 |
| 20260507014402 | 75 | 263 | 0.0 | 1.0 | 0.00 | 0.00 | 0.00 | 73 | 1013.3 |
| 20260507013859 | 75 | 185 | 3.0 | 3.0 | 0.00 | 0.00 | 0.00 | 73 | 1012.8 |
| 20260507013356 | 75 | 270 | 0.0 | 0.0 | 0.00 | 0.00 | 0.00 | 71 | 1013.2 |
| 20260507012854 | 75 | 282 | 1.0 | 2.0 | 0.00 | 0.00 | 0.00 | 70 | 1012.9 |
| 20260507012349 | 75 | 199 | 1.0 | 2.0 | 0.00 | 0.00 | 0.00 | 69 | 1013.0 |
| 20260507011847 | 75 | 283 | 0.0 | 1.0 | 0.00 | 0.00 | 0.00 | 67 | 1013.0 |
| 20260507011344 | 75 | 286 | 0.0 | 0.0 | 0.00 | 0.00 | 0.00 | 66 | 1013.4 |
| 20260507010843 | 76 | 273 | 0.0 | 0.0 | 0.00 | 0.00 | 0.00 | 66 | 1013.3 |
| 20260507010339 | 76 | 265 | 1.0 | 1.0 | 0.00 | 0.00 | 0.00 | 66 | 1013.2 |
| 20260507005837 | 76 | 237 | 0.0 | 0.0 | 0.00 | 0.00 | 0.00 | 65 | 1013.2 |
| 20260507005333 | 76 | 291 | 0.0 | 0.0 | 0.00 | 0.00 | 0.00 | 65 | 1013.2 |
| 20260507004830 | 76 | 261 | 1.0 | 1.0 | 0.00 | 0.00 | 0.00 | 65 | 1013.0 |
| 20260507004327 | 76 | 254 | 1.0 | 1.0 | 0.00 | 0.00 | 0.00 | 64 | 1012.9 |
| 20260507003824 | 76 | 238 | 2.0 | 3.0 | 0.00 | 0.00 | 0.00 | 64 | 1012.9 |
| 20260507003320 | 76 | 215 | 1.0 | 2.0 | 0.00 | 0.00 | 0.00 | 64 | 1012.8 |
| 20260507002815 | 76 | 273 | 0.0 | 0.0 | 0.00 | 0.00 | 0.00 | 64 | 1013.0 |
| 20260507002311 | 76 | 273 | 0.0 | 0.0 | 0.00 | 0.00 | 0.00 | 63 | 1012.7 |
| 20260507001809 | 77 | 275 | 2.0 | 3.0 | 0.00 | 0.00 | 0.00 | 63 | 1012.7 |
| 20260507001306 | 77 | 214 | 0.0 | 0.0 | 0.00 | 0.00 | 0.00 | 63 | 1012.5 |
| 20260507000802 | 77 | 264 | 0.0 | 0.0 | 0.00 | 0.00 | 0.00 | 63 | 1012.3 |
| 20260507000259 | 77 | 261 | 0.0 | 0.0 | 0.00 | 0.00 | 0.00 | 62 | 1012.6 |
| 20260506235754 | 77 | 230 | 1.0 | 2.0 | 0.00 | 0.00 | 0.00 | 62 | 1012.5 |
| 20260506235250 | 77 | 276 | 0.0 | 0.0 | 0.00 | 0.00 | 0.00 | 61 | 1012.7 |
| 20260506234748 | 77 | 259 | 2.0 | 3.0 | 0.00 | 0.00 | 0.00 | 61 | 1012.4 |
| 20260506234245 | 77 | 274 | 1.0 | 1.0 | 0.00 | 0.00 | 0.00 | 61 | 1012.2 |
| 20260506233742 | 77 | 245 | 1.0 | 2.0 | 0.00 | 0.00 | 0.00 | 61 | 1012.0 |
| 20260506233238 | 77 | 239 | 0.0 | 0.0 | 0.00 | 0.00 | 0.00 | 61 | 1012.3 |
| 20260506232735 | 78 | 253 | 4.0 | 5.0 | 0.00 | 0.00 | 0.00 | 61 | 1012.0 |
| 20260506232230 | 78 | 251 | 0.0 | 1.0 | 0.00 | 0.00 | 0.00 | 60 | 1012.3 |
| 20260506231728 | 78 | 297 | 3.0 | 3.0 | 0.00 | 0.00 | 0.00 | 60 | 1012.0 |
| 20260506231226 | 78 | 238 | 1.0 | 2.0 | 0.00 | 0.00 | 0.00 | 60 | 1011.9 |
| 20260506230722 | 78 | 244 | 4.0 | 5.0 | 0.00 | 0.00 | 0.00 | 60 | 1011.9 |
| 20260506230219 | 78 | 279 | 2.0 | 3.0 | 0.00 | 0.00 | 0.00 | 60 | 1011.9 |
| 20260506225715 | 78 | 250 | 0.0 | 1.0 | 0.00 | 0.00 | 0.00 | 61 | 1012.0 |
| 20260506225213 | 78 | 277 | 0.0 | 1.0 | 0.00 | 0.00 | 0.00 | 60 | 1012.0 |
| 20260506224709 | 79 | 205 | 1.0 | 2.0 | 0.00 | 0.00 | 0.00 | 60 | 1012.0 |
| 20260506224206 | 79 | 215 | 4.0 | 5.0 | 0.00 | 0.00 | 0.00 | 60 | 1012.0 |
| 20260506223702 | 79 | 268 | 4.0 | 6.0 | 0.00 | 0.00 | 0.00 | 60 | 1012.3 |
| 20260506223158 | 79 | 237 | 4.0 | 6.0 | 0.00 | 0.00 | 0.00 | 61 | 1011.9 |
| 20260506222655 | 79 | 214 | 2.0 | 2.0 | 0.00 | 0.00 | 0.00 | 61 | 1011.9 |
| 20260506222150 | 79 | 251 | 3.0 | 5.0 | 0.00 | 0.00 | 0.00 | 61 | 1011.9 |
| 20260506221649 | 79 | 280 | 3.0 | 3.0 | 0.00 | 0.00 | 0.00 | 61 | 1012.0 |
| 20260506221147 | 79 | 262 | 4.0 | 6.0 | 0.00 | 0.00 | 0.00 | 61 | 1012.0 |
| 20260506220643 | 79 | 196 | 6.0 | 8.0 | 0.00 | 0.00 | 0.00 | 60 | 1012.0 |
| 20260506220138 | 79 | 228 | 3.0 | 3.0 | 0.00 | 0.00 | 0.00 | 61 | 1011.8 |
| 20260506215635 | 79 | 254 | 2.0 | 3.0 | 0.00 | 0.00 | 0.00 | 61 | 1012.0 |
| 20260506215131 | 79 | 213 | 4.0 | 6.0 | 0.00 | 0.00 | 0.00 | 61 | 1012.0 |
| 20260506214628 | 79 | 210 | 3.0 | 3.0 | 0.00 | 0.00 | 0.00 | 61 | 1011.9 |
| 20260506214126 | 79 | 238 | 2.0 | 2.0 | 0.00 | 0.00 | 0.00 | 61 | 1011.9 |
| 20260506213624 | 79 | 237 | 3.0 | 5.0 | 0.00 | 0.00 | 0.00 | 61 | 1011.8 |
| 20260506213120 | 79 | 269 | 5.0 | 7.0 | 0.00 | 0.00 | 0.00 | 60 | 1011.6 |
| 20260506212618 | 79 | 251 | 2.0 | 5.0 | 0.00 | 0.00 | 0.00 | 61 | 1011.6 |
| 20260506212112 | 79 | 198 | 5.0 | 8.0 | 0.00 | 0.00 | 0.00 | 60 | 1011.6 |
| 20260506211608 | 79 | 248 | 7.0 | 9.0 | 0.00 | 0.00 | 0.00 | 59 | 1011.7 |
| 20260506211106 | 79 | 190 | 4.0 | 6.0 | 0.00 | 0.00 | 0.00 | 60 | 1011.6 |
| 20260506210602 | 79 | 178 | 6.0 | 9.0 | 0.00 | 0.00 | 0.00 | 61 | 1012.0 |
| 20260506210059 | 78 | 254 | 4.0 | 6.0 | 0.00 | 0.00 | 0.00 | 61 | 1012.1 |
| 20260506205555 | 78 | 247 | 6.0 | 7.0 | 0.00 | 0.00 | 0.00 | 61 | 1012.0 |
| 20260506205050 | 78 | 233 | 3.0 | 3.0 | 0.00 | 0.00 | 0.00 | 61 | 1012.2 |
| 20260506204549 | 78 | 263 | 5.0 | 7.0 | 0.00 | 0.00 | 0.00 | 61 | 1012.4 |
| 20260506204045 | 78 | 194 | 3.0 | 5.0 | 0.00 | 0.00 | 0.00 | 61 | 1012.3 |
| 20260506203544 | 78 | 215 | 6.0 | 8.0 | 0.00 | 0.00 | 0.00 | 61 | 1012.6 |
| 20260506203040 | 78 | 183 | 5.0 | 6.0 | 0.00 | 0.00 | 0.00 | 61 | 1012.4 |
| 20260506202538 | 79 | 169 | 3.0 | 5.0 | 0.00 | 0.00 | 0.00 | 62 | 1012.5 |
| 20260506202034 | 79 | 301 | 5.0 | 6.0 | 0.00 | 0.00 | 0.00 | 62 | 1012.5 |
| 20260506201532 | 79 | 275 | 2.0 | 2.0 | 0.00 | 0.00 | 0.00 | 63 | 1013.1 |
| 20260506201028 | 78 | 280 | 3.0 | 5.0 | 0.00 | 0.00 | 0.00 | 63 | 1013.0 |
| 20260506200524 | 78 | 222 | 4.0 | 6.0 | 0.00 | 0.00 | 0.00 | 64 | 1013.2 |
| 20260506200021 | 78 | 255 | 6.0 | 11.0 | 0.00 | 0.00 | 0.00 | 64 | 1013.1 |
| 20260506195518 | 78 | 173 | 2.0 | 2.0 | 0.00 | 0.00 | 0.00 | 65 | 1013.5 |
| 20260506195014 | 78 | 255 | 1.0 | 2.0 | 0.00 | 0.00 | 0.00 | 65 | 1013.3 |
| 20260506194512 | 78 | 248 | 7.0 | 9.0 | 0.00 | 0.00 | 0.00 | 64 | 1013.2 |
| 20260506194008 | 78 | 232 | 2.0 | 3.0 | 0.00 | 0.00 | 0.00 | 65 | 1013.4 |
| 20260506193506 | 78 | 239 | 3.0 | 3.0 | 0.00 | 0.00 | 0.00 | 65 | 1013.6 |
| 20260506193002 | 79 | 197 | 1.0 | 1.0 | 0.00 | 0.00 | 0.00 | 65 | 1013.7 |
| 20260506192459 | 78 | 235 | 3.0 | 3.0 | 0.00 | 0.00 | 0.00 | 65 | 1013.7 |
| 20260506191955 | 78 | 184 | 3.0 | 5.0 | 0.00 | 0.00 | 0.00 | 65 | 1013.5 |
| 20260506191452 | 77 | 188 | 3.0 | 3.0 | 0.00 | 0.00 | 0.00 | 66 | 1013.6 |
| 20260506190948 | 77 | 267 | 2.0 | 3.0 | 0.00 | 0.00 | 0.00 | 66 | 1013.6 |
| 20260506190446 | 77 | 275 | 5.0 | 8.0 | 0.00 | 0.00 | 0.00 | 65 | 1013.8 |
| 20260506185942 | 77 | 230 | 2.0 | 2.0 | 0.00 | 0.00 | 0.00 | 65 | 1013.8 |
| 20260506185439 | 77 | 194 | 5.0 | 7.0 | 0.00 | 0.00 | 0.00 | 65 | 1013.8 |
| 20260506184936 | 77 | 215 | 3.0 | 3.0 | 0.00 | 0.00 | 0.00 | 65 | 1013.7 |
| 20260506184433 | 77 | 180 | 3.0 | 3.0 | 0.00 | 0.00 | 0.00 | 65 | 1013.6 |
| 20260506183931 | 77 | 211 | 4.0 | 5.0 | 0.00 | 0.00 | 0.00 | 64 | 1013.9 |
| 20260506183426 | 77 | 171 | 8.0 | 10.0 | 0.00 | 0.00 | 0.00 | 64 | 1014.0 |
| 20260506182923 | 77 | 226 | 5.0 | 7.0 | 0.00 | 0.00 | 0.00 | 63 | 1014.1 |
| 20260506182420 | 77 | 184 | 6.0 | 7.0 | 0.00 | 0.00 | 0.00 | 63 | 1014.2 |
| 20260506181918 | 77 | 229 | 4.0 | 5.0 | 0.00 | 0.00 | 0.00 | 64 | 1014.2 |
| 20260506181416 | 77 | 240 | 5.0 | 7.0 | 0.00 | 0.00 | 0.00 | 63 | 1014.3 |
| 20260506180912 | 77 | 234 | 7.0 | 11.0 | 0.00 | 0.00 | 0.00 | 63 | 1014.4 |
| 20260506180408 | 77 | 212 | 3.0 | 5.0 | 0.00 | 0.00 | 0.00 | 63 | 1014.1 |
| 20260506175905 | 77 | 158 | 4.0 | 5.0 | 0.00 | 0.00 | 0.00 | 63 | 1014.3 |
| 20260506175402 | 77 | 228 | 5.0 | 6.0 | 0.00 | 0.00 | 0.00 | 63 | 1014.5 |
| 20260506174859 | 77 | 239 | 4.0 | 6.0 | 0.00 | 0.00 | 0.00 | 64 | 1014.6 |
| 20260506174356 | 77 | 282 | 3.0 | 5.0 | 0.00 | 0.00 | 0.00 | 66 | 1014.9 |
| 20260506173854 | 76 | 244 | 3.0 | 5.0 | 0.00 | 0.00 | 0.00 | 66 | 1015.1 |
| 20260506173350 | 76 | 259 | 3.0 | 6.0 | 0.00 | 0.00 | 0.00 | 66 | 1015.2 |
| 20260506172847 | 75 | 212 | 3.0 | 6.0 | 0.00 | 0.00 | 0.00 | 67 | 1014.9 |
| 20260506172344 | 75 | 246 | 4.0 | 6.0 | 0.00 | 0.00 | 0.00 | 68 | 1015.2 |